Back to catalog

NOAA 16 DEB

AlivePO
NORAD 42378·DEBRIS·🇺🇸 United States

Launched Sep 21, 2000 from Vandenberg Space Force Base

Loading…

Next Passes (next 24 hours)

TLE

FreshSource: Space-Track

Epoch: Sep 14, 2026, 06:22 UTC

1 42378U 00055RW  26257.26531937  .00004421  00000-0  11998-2 0  9993
2 42378  98.8740  50.2205 0017974 219.8220 140.1654 14.48031631547196

Track NOAA 16 DEB in real time with AllMySat

Download on the App Store